| time (UTC) | temp F | wind direction | speed MPH | gust MPH | rain 1hr in | rain 24hr in | rain mn in | humidity % | barometer mb |
| 20260507064543 | 65 | 194 | 1.0 | 4.0 | 0.00 | 0.07 | 0.02 | 94 | 1009.7 |
| 20260507063033 | 65 | 233 | 0.0 | 2.0 | 0.00 | 0.07 | 0.02 | 94 | 1009.9 |
| 20260507061537 | 65 | 191 | 1.0 | 4.0 | 0.00 | 0.07 | 0.02 | 94 | 1010.7 |
| 20260507060038 | 65 | 187 | 0.0 | 2.0 | 0.00 | 0.07 | 0.02 | 93 | 1010.7 |
| 20260507054539 | 65 | 187 | 0.0 | 2.0 | 0.00 | 0.07 | 0.02 | 93 | 1010.9 |
| 20260507053031 | 65 | 186 | 0.0 | 0.0 | 0.00 | 0.07 | 0.02 | 93 | 1011.3 |
| 20260507051529 | 65 | 186 | 0.0 | 0.0 | 0.00 | 0.07 | 0.02 | 93 | 1011.8 |
| 20260507050049 | 65 | 186 | 0.0 | 0.0 | 0.02 | 0.07 | 0.02 | 93 | 1011.3 |
| 20260507044525 | 66 | 186 | 0.0 | 3.0 | 0.04 | 0.07 | 0.02 | 92 | 1011.7 |
| 20260507043024 | 66 | 198 | 1.0 | 3.0 | 0.05 | 0.07 | 0.02 | 92 | 1011.3 |
| 20260507041522 | 66 | 197 | 1.0 | 5.0 | 0.06 | 0.07 | 0.02 | 91 | 1011.1 |
| 20260507040022 | 66 | 205 | 0.0 | 3.0 | 0.04 | 0.05 | 0.05 | 91 | 1011.5 |
| 20260507034519 | 66 | 206 | 0.0 | 3.0 | 0.02 | 0.03 | 0.03 | 90 | 1012.2 |
| 20260507033021 | 66 | 190 | 0.0 | 2.0 | 0.01 | 0.02 | 0.02 | 89 | 1012.4 |
| 20260507031515 | 67 | 190 | 0.0 | 0.0 | 0.00 | 0.01 | 0.01 | 88 | 1012.2 |
| 20260507030014 | 67 | 190 | 0.0 | 1.0 | 0.00 | 0.01 | 0.01 | 87 | 1011.5 |
| 20260507024517 | 67 | 190 | 0.0 | 1.0 | 0.00 | 0.01 | 0.01 | 86 | 1011.8 |
| 20260507023012 | 68 | 190 | 0.0 | 1.0 | 0.00 | 0.01 | 0.01 | 85 | 1011.8 |
| 20260507021518 | 68 | 192 | 0.0 | 3.0 | 0.00 | 0.01 | 0.01 | 85 | 1011.3 |
| 20260507020020 | 68 | 192 | 0.0 | 2.0 | 0.00 | 0.01 | 0.01 | 84 | 1011.0 |
| 20260507014514 | 68 | 192 | 0.0 | 5.0 | 0.00 | 0.01 | 0.01 | 83 | 1010.7 |
| 20260507013011 | 69 | 244 | 0.0 | 5.0 | 0.00 | 0.01 | 0.01 | 83 | 1010.8 |
| 20260507011515 | 69 | 229 | 2.0 | 4.0 | 0.00 | 0.01 | 0.01 | 82 | 1010.8 |
| 20260507010023 | 69 | 168 | 1.0 | 7.0 | 0.00 | 0.01 | 0.01 | 82 | 1011.2 |
| 20260507004508 | 69 | 212 | 2.0 | 5.0 | 0.00 | 0.01 | 0.01 | 82 | 1011.0 |
| 20260507003008 | 69 | 183 | 1.0 | 5.0 | 0.00 | 0.01 | 0.01 | 81 | 1010.9 |
| 20260507001508 | 70 | 191 | 0.0 | 3.0 | 0.00 | 0.01 | 0.01 | 81 | 1010.7 |
| 20260507000007 | 70 | 206 | 1.0 | 4.0 | 0.00 | 0.01 | 0.01 | 79 | 1010.4 |
| 20260506234506 | 71 | 229 | 0.0 | 3.0 | 0.00 | 0.01 | 0.01 | 79 | 1010.7 |
| 20260506233007 | 71 | 177 | 2.0 | 5.0 | 0.00 | 0.01 | 0.01 | 78 | 1010.7 |
| 20260506231506 | 72 | 226 | 0.0 | 6.0 | 0.00 | 0.01 | 0.01 | 77 | 1011.0 |
| 20260506230005 | 72 | 204 | 1.0 | 7.0 | 0.00 | 0.01 | 0.01 | 77 | 1011.2 |
| 20260506224505 | 72 | 136 | 3.0 | 11.0 | 0.00 | 0.01 | 0.01 | 76 | 1011.1 |
| 20260506223003 | 73 | 269 | 3.0 | 9.0 | 0.00 | 0.01 | 0.01 | 75 | 1010.9 |
| 20260506221504 | 73 | 192 | 2.0 | 10.0 | 0.00 | 0.01 | 0.01 | 75 | 1010.7 |
| 20260506220003 | 73 | 177 | 4.0 | 10.0 | 0.00 | 0.01 | 0.01 | 75 | 1010.5 |
| 20260506214502 | 73 | 205 | 5.0 | 12.0 | 0.00 | 0.01 | 0.01 | 74 | 1010.3 |
| 20260506213001 | 74 | 188 | 4.0 | 10.0 | 0.00 | 0.01 | 0.01 | 73 | 1010.4 |
| 20260506211600 | 74 | 288 | 2.0 | 9.0 | 0.00 | 0.01 | 0.01 | 75 | 1010.6 |
| 20260506210059 | 73 | 162 | 2.0 | 8.0 | 0.00 | 0.01 | 0.01 | 76 | 1010.5 |
| 20260506204602 | 73 | 261 | 7.0 | 14.0 | 0.00 | 0.01 | 0.01 | 75 | 1010.5 |
| 20260506203056 | 73 | 192 | 3.0 | 12.0 | 0.00 | 0.01 | 0.01 | 76 | 1010.8 |
| 20260506201557 | 72 | 227 | 4.0 | 14.0 | 0.00 | 0.01 | 0.01 | 76 | 1010.6 |
| 20260506200107 | 71 | 10 | 3.0 | 13.0 | 0.00 | 0.01 | 0.01 | 78 | 1010.5 |
| 20260506194553 | 70 | 10 | 3.0 | 13.0 | 0.00 | 0.01 | 0.01 | 79 | 1010.7 |
| 20260506193044 | 69 | 184 | 2.0 | 7.0 | 0.00 | 0.01 | 0.01 | 81 | 1010.8 |
| 20260506191541 | 68 | 190 | 3.0 | 10.0 | 0.00 | 0.01 | 0.01 | 81 | 1010.3 |
| 20260506190040 | 68 | 160 | 2.0 | 8.0 | 0.00 | 0.01 | 0.01 | 82 | 1010.5 |
| 20260506184536 | 68 | 169 | 1.0 | 5.0 | 0.00 | 0.01 | 0.01 | 83 | 1011.2 |
| 20260506183033 | 68 | 173 | 2.0 | 6.0 | 0.00 | 0.01 | 0.01 | 83 | 1012.0 |
| 20260506181535 | 68 | 270 | 2.0 | 10.0 | 0.00 | 0.01 | 0.01 | 83 | 1012.6 |
| 20260506180032 | 68 | 208 | 2.0 | 6.0 | 0.00 | 0.01 | 0.01 | 84 | 1012.7 |
| 20260506174530 | 67 | 190 | 3.0 | 8.0 | 0.00 | 0.01 | 0.01 | 85 | 1013.1 |
| 20260506173029 | 66 | 173 | 2.0 | 5.0 | 0.00 | 0.01 | 0.01 | 85 | 1013.1 |
| 20260506171538 | 66 | 167 | 2.0 | 10.0 | 0.00 | 0.01 | 0.01 | 85 | 1013.1 |
| 20260506170029 | 66 | 222 | 2.0 | 9.0 | 0.00 | 0.01 | 0.01 | 84 | 1013.3 |
| 20260506164527 | 66 | 221 | 2.0 | 6.0 | 0.00 | 0.01 | 0.01 | 85 | 1012.8 |
| 20260506163031 | 66 | 164 | 1.0 | 6.0 | 0.00 | 0.01 | 0.01 | 85 | 1012.9 |
| 20260506161536 | 65 | 181 | 3.0 | 7.0 | 0.01 | 0.01 | 0.01 | 86 | 1012.7 |
| 20260506160037 | 65 | 188 | 1.0 | 4.0 | 0.01 | 0.01 | 0.01 | 86 | 1012.9 |
| 20260506154521 | 64 | 201 | 1.0 | 4.0 | 0.01 | 0.01 | 0.01 | 85 | 1013.1 |
| 20260506153020 | 65 | 202 | 1.0 | 3.0 | 0.01 | 0.01 | 0.01 | 84 | 1013.0 |
| 20260506151530 | 65 | 201 | 1.0 | 4.0 | 0.00 | 0.00 | 0.00 | 83 | 1013.0 |
| 20260506150027 | 65 | 204 | 0.0 | 3.0 | 0.00 | 0.00 | 0.00 | 81 | 1013.1 |
| 20260506144516 | 65 | 212 | 0.0 | 5.0 | 0.00 | 0.00 | 0.00 | 79 | 1013.2 |
| 20260506143116 | 65 | 204 | 1.0 | 4.0 | 0.00 | 0.00 | 0.00 | 78 | 1013.0 |
| 20260506141514 | 65 | 233 | 1.0 | 8.0 | 0.00 | 0.00 | 0.00 | 77 | 1012.7 |
| 20260506140014 | 65 | 193 | 3.0 | 8.0 | 0.00 | 0.00 | 0.00 | 76 | 1012.6 |
| 20260506134512 | 66 | 285 | 2.0 | 9.0 | 0.00 | 0.00 | 0.00 | 74 | 1012.8 |
| 20260506133012 | 66 | 244 | 2.0 | 10.0 | 0.00 | 0.00 | 0.00 | 72 | 1012.6 |
| 20260506131515 | 66 | 180 | 3.0 | 10.0 | 0.00 | 0.00 | 0.00 | 72 | 1012.5 |
| 20260506130009 | 65 | 160 | 4.0 | 9.0 | 0.00 | 0.00 | 0.00 | 73 | 1012.9 |
| 20260506124505 | 65 | 187 | 2.0 | 8.0 | 0.00 | 0.00 | 0.00 | 74 | 1012.7 |
| 20260506123003 | 64 | 285 | 2.0 | 10.0 | 0.00 | 0.00 | 0.00 | 75 | 1012.5 |
| 20260506121501 | 64 | 256 | 5.0 | 10.0 | 0.00 | 0.00 | 0.00 | 75 | 1012.5 |
| 20260506114556 | 64 | 186 | 3.0 | 8.0 | 0.00 | 0.00 | 0.00 | 74 | 1012.3 |
| 20260506113104 | 64 | 170 | 5.0 | 10.0 | 0.00 | 0.00 | 0.00 | 74 | 1012.1 |
| 20260506111554 | 64 | 191 | 3.0 | 11.0 | 0.00 | 0.00 | 0.00 | 74 | 1012.2 |
| 20260506110059 | 63 | 196 | 4.0 | 11.0 | 0.00 | 0.00 | 0.00 | 74 | 1012.1 |
| 20260506104558 | 63 | 205 | 4.0 | 10.0 | 0.00 | 0.00 | 0.00 | 73 | 1012.0 |
| 20260506103049 | 63 | 183 | 2.0 | 10.0 | 0.00 | 0.00 | 0.00 | 73 | 1012.1 |
| 20260506101555 | 63 | 194 | 2.0 | 7.0 | 0.00 | 0.00 | 0.00 | 74 | 1012.0 |
| 20260506100047 | 63 | 185 | 5.0 | 12.0 | 0.00 | 0.00 | 0.00 | 74 | 1012.0 |
| 20260506094553 | 63 | 256 | 1.0 | 8.0 | 0.00 | 0.00 | 0.00 | 74 | 1011.9 |
| 20260506093047 | 63 | 227 | 3.0 | 9.0 | 0.00 | 0.00 | 0.00 | 74 | 1011.9 |
| 20260506091542 | 63 | 150 | 4.0 | 10.0 | 0.00 | 0.00 | 0.00 | 74 | 1012.3 |
| 20260506090043 | 63 | 146 | 5.0 | 9.0 | 0.00 | 0.00 | 0.00 | 75 | 1012.1 |
| 20260506084537 | 63 | 144 | 5.0 | 10.0 | 0.00 | 0.00 | 0.00 | 75 | 1012.4 |
| 20260506083037 | 63 | 208 | 5.0 | 11.0 | 0.00 | 0.00 | 0.00 | 75 | 1012.5 |
| 20260506081536 | 63 | 242 | 3.0 | 11.0 | 0.00 | 0.00 | 0.00 | 75 | 1012.6 |
| 20260506073031 | 64 | 220 | 2.0 | 14.0 | 0.00 | 0.00 | 0.00 | 75 | 1012.4 |
| 20260506071529 | 64 | 242 | 4.0 | 11.0 | 0.00 | 0.00 | 0.00 | 75 | 1012.5 |